Location: Olsztyn
(53.7767°N, 20.4765°E)
Time: 15:27:19
(UTC+02:00)

A-11 Canister half - Pass Details

Date: 27 January 2022
Orbit: 1513 x 1686 km, 47.2° (Epoch: 25 May)

Event Time Altitude Azimuth Distance (km) Brightness Sun altitude
Rises 15:28:10 0° 212° (SSW) 4,780 13.3 4.2°
Reaches altitude 10° 15:31:41 10° 203° (SSW) 3,772 12.3 3.8°
Maximum altitude 15:39:45 33° 145° (SE) 2,384 10.1 2.8°
Drops below altitude 10° 15:47:39 10° 86° (E) 3,691 10.5 1.9°
Sets 15:51:02 0° 77° (ENE) 4,665 10.9 1.5°
